Bilbao, Spain

6:52 PM CEST en Octubre 21, 2018 (GMT +0200)
Bilbao

Tiempo Historia de LEBB - Octubre, 2018

Change the Weather History Date:

Viernes, Octubre 12, 2018

  Actual Average Record
Temperature  
Temperatura media 72 ° F -  
Temperatura máxima 84 ° F 66 ° F 87 ° F (2001)
Temperatura mínima 59 ° F 50 ° F 41 ° F (2000)
Cooling Degree Days 6    
Growing Degree Days 22 (Base 50)    
Moisture  
Punto de rocío 53 ° F    
Average Humidity 49    
Maximum Humidity 100    
Minimum Humidity 18    
Precipitación  
Precipitación 0.00 pul - - ()
Presión al nivel del mar  
Presión al nivel del mar 30.00 pul    
Viento  
Velocidad del viento 7 mph ()    
Velocidad máxima del viento 17 mph    
Max Gust Speed 32 mph    
Visibilidad 8.1 Millas    
Eventos      
Averages and records for this station are not official NWS values.
T = Trace of Precipitation, MM = Missing Value Source: Averaged Metar Reports

Daily Weather History Graph

Daily Weather History Graph

Search for Another Location

Airport or City:

Astronomía

Oct. 12, 2018 Salida Puesta
Hora real 8:21 AM CEST 7:34 PM CEST
Crepúsculo civil 7:53 AM CEST 8:02 PM CEST
Crepúsculo náutico 7:20 AM CEST 8:35 PM CEST
Crepúsculo astronómico 6:46 AM CEST 9:08 PM CEST
Luna 11:45 AM CEST (10/12) 9:55 PM CEST (10/12)
Horas de luz 12h 09m
Horas de luz
11h 12m
Creciente, 12% of the Moon is Illuminated
Oct 12
Creciente
Oct 16
Cuarto creciente
Oct 24
Luna llena
Oct 31
Cuarto menguante
Nov 7
Nueva

Hourly Weather History & Observations

Hora (CEST) Temp. Índice de calor Punto de rocío Humedad Presión Visibilidad Wind Dir Velocidad del viento Velocidad de ráfagas Precip Eventos Condiciones
12:00 AM 60 ° F - 60 ° F 100% 29.93 pul - Sur 2.3 mph - -  
12:00 AM 59.0 ° F - 57.2 ° F 94% 29.92 pul - Variable 1.2 mph - N/A   Despejado
12:30 AM 59.0 ° F - 57.2 ° F 94% 29.92 pul - Variable 2.3 mph - N/A   Despejado
1:00 AM 60 ° F - 60 ° F 99% 29.93 pul - Este 4.6 mph - -  
1:00 AM 60.8 ° F - 59.0 ° F 94% 29.92 pul 6.2 mi ESE 4.6 mph - N/A   Desconocido
1:30 AM 60.8 ° F - 59.0 ° F 94% 29.92 pul 6.2 mi ESE 6.9 mph - N/A   Desconocido
2:00 AM 60 ° F - 60 ° F 100% 29.92 pul - ESE 6.9 mph - -  
2:00 AM 60.8 ° F - 59.0 ° F 94% 29.92 pul 6.2 mi SE 6.9 mph - N/A   Desconocido
2:30 AM 60.8 ° F - 59.0 ° F 94% 29.92 pul 6.2 mi ESE 6.9 mph - N/A   Desconocido
3:00 AM 64 ° F - 60 ° F 82% 29.93 pul - NE 4.6 mph - -  
3:00 AM 60.8 ° F - 57.2 ° F 88% 29.92 pul 6.2 mi Variable 3.5 mph - N/A   Desconocido
3:30 AM 60.8 ° F - 57.2 ° F 88% 29.92 pul 6.2 mi Variable 4.6 mph - N/A   Desconocido
4:00 AM 69 ° F - 57 ° F 57% 29.93 pul - Sur 5.8 mph - -  
4:00 AM 60.8 ° F - 57.2 ° F 88% 29.92 pul - Variable 4.6 mph - N/A   Despejado
4:30 AM 69.8 ° F - 59.0 ° F 68% 29.92 pul - SSO 8.1 mph 20.7 mph N/A   Despejado
5:00 AM 74 ° F - 54 ° F 39% 29.93 pul 9 mi SSO 10.4 mph - -   Nublado
5:00 AM 73.4 ° F - 55.4 ° F 53% 29.92 pul - SSO 10.4 mph - N/A   Despejado
5:30 AM 73.4 ° F - 53.6 ° F 50% 29.92 pul - SSO 10.4 mph 23.0 mph N/A   Despejado
6:00 AM 74 ° F - 51 ° F 34% 29.95 pul - Sur 5.8 mph - -  
6:00 AM 73.4 ° F - 51.8 ° F 47% 29.95 pul - Variable 6.9 mph - N/A   Despejado
6:30 AM 71.6 ° F - 51.8 ° F 50% 29.95 pul - Variable 5.8 mph - N/A   Despejado
7:00 AM 73 ° F - 51 ° F 35% 29.96 pul - Sur 9.2 mph - -  
7:00 AM 73.4 ° F - 51.8 ° F 47% 29.95 pul - Sur 8.1 mph 21.9 mph N/A   Despejado
7:30 AM 71.6 ° F - 51.8 ° F 50% 29.98 pul - SO 17.3 mph - N/A   Despejado
8:00 AM 71 ° F - 51 ° F 39% 29.98 pul 12 mi SSE 5.8 mph - -   Nubes dispersas
8:00 AM 73.4 ° F - 51.8 ° F 47% 29.98 pul - Sur 4.6 mph - N/A   Despejado
8:30 AM 73.4 ° F - 51.8 ° F 47% 29.98 pul 6.2 mi Variable 9.2 mph 26.5 mph N/A   Parcialmente nublado
9:00 AM 72 ° F - 52 ° F 39% 30.00 pul - Sur 9.2 mph - -  
9:00 AM 73.4 ° F - 51.8 ° F 47% 29.98 pul 6.2 mi Sur 6.9 mph - N/A   Parcialmente nublado
9:30 AM 75.2 ° F - 53.6 ° F 47% 30.01 pul 6.2 mi SSE 12.7 mph - N/A   Parcialmente nublado
10:00 AM 73 ° F - 53 ° F 39% 30.02 pul - SSE 8.1 mph - -  
10:00 AM 75.2 ° F - 53.6 ° F 47% 30.01 pul 6.2 mi SSE 6.9 mph - N/A   Parcialmente nublado
10:30 AM 75.2 ° F - 53.6 ° F 47% 30.04 pul 6.2 mi Sur 4.6 mph - N/A   Parcialmente nublado
11:00 AM 76 ° F - 53 ° F 35% 30.04 pul 16 mi Sur 11.5 mph - -   Nubes dispersas
11:00 AM 77.0 ° F - 53.6 ° F 44% 30.04 pul 6.2 mi Sur 8.1 mph - N/A   Parcialmente nublado
11:30 AM 78.8 ° F - 55.4 ° F 44% 30.04 pul 6.2 mi Sur 15.0 mph 28.8 mph N/A   Parcialmente nublado
12:00 PM 77 ° F - 53 ° F 33% 30.04 pul - Sur 15.0 mph - -  
12:00 PM 78.8 ° F - 53.6 ° F 42% 30.04 pul 6.2 mi Sur 13.8 mph - N/A   Parcialmente nublado
12:30 PM 78.8 ° F - 55.4 ° F 44% 30.04 pul 6.2 mi Sur 12.7 mph 24.2 mph N/A   Parcialmente nublado
1:00 PM 79 ° F - 52 ° F 29% 30.04 pul - Sur 15.0 mph - -  
1:00 PM 80.6 ° F 80.3 ° F 53.6 ° F 39% 30.04 pul 6.2 mi Sur 13.8 mph 28.8 mph N/A   Parcialmente nublado
1:30 PM 80.6 ° F - 51.8 ° F 37% 30.04 pul 6.2 mi Sur 15.0 mph 32.2 mph N/A   Parcialmente nublado
2:00 PM 82 ° F - 51 ° F 24% 30.04 pul 16 mi SSO 12.7 mph - -   Parcialmente nublado
2:00 PM 82.4 ° F - 51.8 ° F 35% 30.04 pul - SSO 12.7 mph 25.3 mph N/A   Despejado
2:30 PM 82.4 ° F - 51.8 ° F 35% 30.04 pul - Variable 6.9 mph - N/A   Despejado
3:00 PM 83 ° F - 51 ° F 23% 30.03 pul - SSO 9.2 mph - -  
3:00 PM 82.4 ° F - 50.0 ° F 32% 30.04 pul - SSO 9.2 mph 20.7 mph N/A   Despejado
3:30 PM 84.2 ° F - 50.0 ° F 30% 30.04 pul - OSO 13.8 mph 26.5 mph N/A   Despejado
4:00 PM 83 ° F - 47 ° F 18% 30.04 pul - SO 17.3 mph - -  
4:00 PM 84.2 ° F - 50.0 ° F 30% 30.04 pul - SO 15.0 mph 28.8 mph N/A   Despejado
4:30 PM 84.2 ° F - 50.0 ° F 30% 30.04 pul - SSO 4.6 mph - N/A   Despejado
5:00 PM 85 ° F - 49 ° F 19% 30.03 pul 25 mi SSO 5.8 mph - -   Nubes dispersas
5:30 PM 86.0 ° F - 50.0 ° F 29% 30.04 pul - SSO 12.7 mph 24.2 mph N/A   Despejado
6:00 PM 83 ° F - 49 ° F 20% 30.03 pul - SSO 10.4 mph - -  
6:00 PM 84.2 ° F - 51.8 ° F 33% 30.04 pul - SSO 9.2 mph - N/A   Despejado
6:30 PM 82.4 ° F - 51.8 ° F 35% 30.04 pul - SSO 6.9 mph - N/A   Despejado
7:00 PM 82.4 ° F - 51.8 ° F 35% 30.04 pul - SSO 9.2 mph - N/A   Despejado
7:30 PM 78.8 ° F - 51.8 ° F 39% 30.04 pul - Sur 5.8 mph - N/A   Despejado
8:00 PM 78 ° F - 49 ° F 26% 30.05 pul 19 mi Sur 6.9 mph - -   Nubes dispersas
8:00 PM 77.0 ° F - 51.8 ° F 41% 30.04 pul - Sur 5.8 mph - N/A   Despejado
8:30 PM 77.0 ° F - 51.8 ° F 41% 30.06 pul - Sur 5.8 mph - N/A   Despejado
9:00 PM 77 ° F - 49 ° F 26% 30.06 pul - Sur 5.8 mph - -  
9:00 PM 75.2 ° F - 51.8 ° F 44% 30.06 pul - Sur 4.6 mph - N/A   Despejado
9:30 PM 75.2 ° F - 51.8 ° F 44% 30.06 pul - Sur 6.9 mph - N/A   Despejado
10:00 PM 76 ° F - 48 ° F 27% 30.05 pul - Sur 5.8 mph - -  
10:00 PM 73.4 ° F - 50.0 ° F 44% 30.04 pul - Sur 3.5 mph - N/A   Despejado
10:30 PM 73.4 ° F - 51.8 ° F 47% 30.04 pul - Sur 5.8 mph - N/A   Despejado
11:00 PM 76 ° F - 49 ° F 27% 30.05 pul 9 mi Sur 4.6 mph - -   Despejado
11:00 PM 75.2 ° F - 51.8 ° F 44% 30.04 pul - Sur 4.6 mph - N/A   Despejado
11:30 PM 73.4 ° F - 51.8 ° F 47% 30.04 pul - Sur 6.9 mph - N/A   Despejado